Content
SEND FEEDBACK

Daily
Averages
Monthly
Summary
Switzerland

BERN, SWITZERLAND


Home > Europe > Switzerland
Elevation: 1673 feet     Latitude: 46 55N     Longitude: 007 30E

WEATHER
 
SELECT A DAY
Number of Records: 187,343;   Date Range: 7/1/96 - 12/19/14
 
SHARE

PRINT THIS DATA

[ ← Previous Day ]
WEATHER ALMANAC - APRIL 6, 2013
[ Next Day → ]
[ °C ]   °F
Weather ElementAverageHighLow
Temperature42.7 °F50 °F (2:50 pm)37.4 °F (5:30 am)
Dewpoint34 °F37.4 °F (12:50 am)32 °F (6:50 pm)
Humidity72.8 %93 % (12:50 am)54 % (2:50 pm)
Barometer29.86 in30.01 in (9:50 pm)29.77 in (12:50 am)
Wind Speed5.4 mph11.5 mph (5:50 pm)
Wind Gust23 mph (5:20 pm)
Weather ElementAverage
Visibility3.2 mi
Wind DirectionSSW (216.9 °)

Weather ElementTotal
Precipitation---
Heating Degree Days21.3 (Base 65)
Averaged from 49 records on April 6, 2013
WEATHER CONDITIONS BREAKOUT
WIND DIRECTION BREAKOUT
WEATHER BY HOUR - APRIL 6, 2013
[ °C ]   °F
Local TimeTemperatureDewpointHumidityBarometerVisibilityWind DirectionWind SpeedGust SpeedPrecipitationEventsConditions
12:50 AM39.2 °F37.4 °F93 %29.77 in3.1 miNW (320°)4.6 mphOvercast
1:20 AM39.2 °F35.6 °F87 %29.77 in3.1 miWest (280°)4.6 mphOvercast
1:50 AM39.2 °F35.6 °F87 %29.77 in3.1 miVariable2.3 mphScattered Clouds
2:20 AM39.2 °F35.6 °F87 %29.77 in3.1 miWest (270°)3.5 mphOvercast
2:50 AM39.2 °F35.6 °F87 %29.77 in3.1 miNW (310°)2.3 mphMostly Cloudy
3:20 AM39.2 °F33.8 °F81 %29.77 in3.1 miVariable1.2 mphOvercast
3:50 AM39.2 °F33.8 °F81 %29.77 in3.1 miWNW (300°)3.5 mphOvercast
4:20 AM39.2 °F35.6 °F87 %29.77 in3.1 miWNW (290°)5.8 mphOvercast
4:50 AM39.2 °F33.8 °F81 %29.77 in3.1 miWNW (300°)6.9 mphOvercast
5:20 AM39.2 °F33.8 °F81 %29.77 inWNW (290°)4.6 mphOvercast
5:30 AM37.4 °F33.8 °F87 %29.77 inWNW (290°)3.5 mphOvercast
5:50 AM37.4 °F33.8 °F87 %29.77 inWNW (290°)4.6 mphOvercast
6:20 AM37.4 °F35.6 °F93 %29.80 in2.5 miWNW (290°)4.6 mphOvercast
6:50 AM37.4 °F35.6 °F93 %29.80 inWNW (300°)4.6 mphOvercast
7:20 AM37.4 °F35.6 °F93 %29.80 inWNW (290°)4.6 mphOvercast
7:50 AM37.4 °F33.8 °F87 %29.83 inWNW (290°)4.6 mphOvercast
8:20 AM37.4 °F33.8 °F87 %29.83 inWNW (290°)4.6 mphOvercast
8:50 AM39.2 °F33.8 °F81 %29.83 inWNW (290°)4.6 mphOvercast
9:20 AM39.2 °F33.8 °F81 %29.83 inWest (280°)5.8 mphOvercast
9:50 AM39.2 °F33.8 °F81 %29.83 in2.5 miWNW (290°)6.9 mphOvercast
10:20 AM41.0 °F35.6 °F81 %29.86 in2.5 miWNW (300°)8.1 mphOvercast
10:50 AM41.0 °F35.6 °F81 %29.86 in2.5 miWest (270°)8.1 mphMostly Cloudy
11:20 AM42.8 °F35.6 °F76 %29.86 in2.5 miNW (310°)6.9 mphOvercast
11:50 AM44.6 °F35.6 °F71 %29.86 in2.5 miWest (270°)6.9 mphOvercast
12:20 PM46.4 °F35.6 °F66 %29.89 in2.5 miNorth (350°)5.8 mphOvercast
12:50 PM46.4 °F33.8 °F62 %29.89 in2.5 miNE (40°)5.8 mphOvercast
1:20 PM48.2 °F33.8 °F58 %29.89 in2.5 miNorth (360°)5.8 mphOvercast
1:50 PM48.2 °F33.8 °F58 %29.86 in2.5 miNorth (350°)5.8 mphMostly Cloudy
2:02 PM48.2 °F35.6 °F62 %29.86 in3.1 miNorth (10°)5.8 mphHaze
2:20 PM48.2 °F33.8 °F58 %29.86 in3.1 miNorth (360°)5.8 mphHaze
2:50 PM50.0 °F33.8 °F54 %29.86 in3.1 miNNE (30°)5.8 mphHaze
3:20 PM50.0 °F33.8 °F54 %29.86 in3.1 miNE (40°)4.6 mphHaze
3:50 PM50.0 °F33.8 °F54 %29.86 in3.1 miNE (40°)5.8 mphHaze
4:20 PM50.0 °F33.8 °F54 %29.86 in3.1 miNorth (10°)9.2 mphHaze
4:50 PM48.2 °F33.8 °F58 %29.86 in3.1 miNorth (10°)9.2 mphHaze
5:20 PM48.2 °F33.8 °F58 %29.89 in3.1 miNorth (10°)10.4 mph23.0 mphMostly Cloudy
5:50 PM46.4 °F33.8 °F62 %29.89 in3.1 miNorth (360°)11.5 mphHaze
6:20 PM46.4 °F33.8 °F62 %29.92 in3.1 miNNW (330°)5.8 mphHaze
6:50 PM46.4 °F32.0 °F57 %29.92 in3.1 miNW (320°)6.9 mphHaze
7:20 PM44.6 °F32.0 °F61 %29.92 in3.1 miNW (320°)5.8 mphHaze
7:50 PM44.6 °F32.0 °F61 %29.95 in3.1 miNorth (10°)5.8 mphHaze
8:20 PM44.6 °F32.0 °F61 %29.95 in3.1 miNorth (350°)5.8 mphHaze
8:50 PM42.8 °F32.0 °F66 %29.98 in3.1 miNW (310°)3.5 mphHaze
9:20 PM42.8 °F33.8 °F70 %29.98 in4.3 miWNW (300°)4.6 mphMostly Cloudy
9:50 PM42.8 °F32.0 °F66 %30.01 in4.3 miWNW (300°)3.5 mphMostly Cloudy
10:20 PM42.8 °F32.0 °F66 %30.01 in4.3 miVariable2.3 mphOvercast
10:50 PM41.0 °F32.0 °F70 %30.01 in5.0 miVariable3.5 mphOvercast
11:20 PM41.0 °F32.0 °F70 %30.01 in5.0 miVariable3.5 mphMostly Cloudy
11:50 PM41.0 °F32.0 °F70 %30.01 in5.0 miNorth (10°)3.5 mphOvercast
Hourly data recorded from LSZB, located miles away from Bern, Switzerland







STORIES FROM OUR PARTNERS